VTK225 URWA-UDYZ

Flight info

Callsign VTK225
Flight time 1h 26m
Altitude 34000
Route N0490F340 UP B945 PINMU G96 GIPAR N996 SUBUT T916 SEVAN
Aircraft A320/M-VGDW/C

Departure

Time 2026-04-28 23:47
Airport Astrakhan Narimanovo Boris M. Kustodiev International Airport (URWA)

Arrival

Time 2026-04-29 01:14
Airport Zvartnots International Airport (UDYZ)
Time Latitude Longitude Altitude Speed Heading
2026-04-28 23:34 46.28574 48.00026 -71 ft 0 kts
2026-04-28 23:41 46.28574 48.00027 -71 ft 1 kts
2026-04-28 23:42 46.28604 48.00054 -71 ft 6 kts 61°
2026-04-28 23:42 46.28610 48.00138 -71 ft 12 kts 88°
2026-04-28 23:42 46.28601 48.00281 -67 ft 15 kts 97°
2026-04-28 23:42 46.28587 48.00443 -71 ft 18 kts 97°
2026-04-28 23:43 46.28569 48.00634 -72 ft 20 kts 99°
2026-04-28 23:43 46.28543 48.00841 -69 ft 22 kts 101°
2026-04-28 23:43 46.28514 48.01065 -72 ft 23 kts 101°
2026-04-28 23:43 46.28483 48.01303 -72 ft 25 kts 101°
2026-04-28 23:44 46.28451 48.01553 -66 ft 26 kts 98°
2026-04-28 23:44 46.28430 48.01817 -71 ft 27 kts 97°
2026-04-28 23:44 46.28407 48.02090 -64 ft 28 kts 97°
2026-04-28 23:44 46.28384 48.02365 -71 ft 28 kts 97°
2026-04-28 23:45 46.28361 48.02643 -71 ft 29 kts 97°
2026-04-28 23:45 46.28339 48.02914 -68 ft 21 kts 96°
2026-04-28 23:45 46.28314 48.03077 -68 ft 14 kts 121°
2026-04-28 23:45 46.28225 48.03138 -68 ft 16 kts 182°
2026-04-28 23:46 46.28142 48.03123 -67 ft 7 kts 187°
2026-04-28 23:46 46.28121 48.03092 -69 ft 4 kts 265°
2026-04-28 23:46 46.28125 48.03059 -69 ft 6 kts 278°
2026-04-28 23:46 46.28158 48.02666 -73 ft 77 kts 277°
2026-04-28 23:47 46.28247 48.01586 -73 ft 136 kts 277°
2026-04-28 23:47 46.28378 48.00005 61 ft 170 kts 277°
2026-04-28 23:47 46.28516 47.98292 711 ft 174 kts 277°
2026-04-28 23:47 46.28611 47.96553 1393 ft 180 kts 263°
2026-04-28 23:48 46.28135 47.94787 1745 ft 200 kts 240°
2026-04-28 23:48 46.27391 47.92937 2060 ft 226 kts 238°
2026-04-28 23:48 46.26535 47.90888 2506 ft 250 kts 238°
2026-04-28 23:48 46.25619 47.88679 3283 ft 259 kts 239°
2026-04-28 23:49 46.24698 47.86424 4257 ft 261 kts 240°
2026-04-28 23:49 46.23782 47.84147 5259 ft 262 kts 240°
2026-04-28 23:49 46.22869 47.81852 6219 ft 264 kts 240°
2026-04-28 23:49 46.21968 47.79569 7131 ft 265 kts 240°
2026-04-28 23:50 46.21053 47.77239 8035 ft 267 kts 241°
2026-04-28 23:50 46.20134 47.74900 8938 ft 269 kts 241°
2026-04-28 23:50 46.19210 47.72545 9840 ft 271 kts 242°
2026-04-28 23:50 46.18276 47.70167 10587 ft 277 kts 242°
2026-04-28 23:51 46.17285 47.67642 10843 ft 301 kts 241°
2026-04-28 23:51 46.16217 47.64932 11264 ft 316 kts 241°
2026-04-28 23:51 46.15118 47.62148 11962 ft 321 kts 241°
2026-04-28 23:51 46.14007 47.59338 12753 ft 323 kts 240°
2026-04-28 23:52 46.12903 47.56549 13528 ft 325 kts 240°
2026-04-28 23:52 46.11778 47.53716 14271 ft 327 kts 240°
2026-04-28 23:52 46.10644 47.50869 14959 ft 328 kts 240°
2026-04-28 23:52 46.09502 47.47997 15640 ft 331 kts 240°
2026-04-28 23:53 46.08351 47.45107 16300 ft 333 kts 240°
2026-04-28 23:53 46.07191 47.42189 16965 ft 335 kts 240°
2026-04-28 23:53 46.06042 47.39295 17605 ft 338 kts 240°
2026-04-28 23:53 46.04868 47.36343 18256 ft 340 kts 240°
2026-04-28 23:54 46.03684 47.33370 18834 ft 343 kts 240°
2026-04-28 23:54 46.02493 47.30383 19381 ft 345 kts 239°
2026-04-28 23:54 46.01296 47.27386 19926 ft 347 kts 239°
2026-04-28 23:54 46.00088 47.24368 20467 ft 349 kts 239°
2026-04-28 23:55 45.98867 47.21322 21009 ft 351 kts 239°
2026-04-28 23:55 45.97641 47.18267 21537 ft 353 kts 239°
2026-04-28 23:55 45.96425 47.15238 22082 ft 355 kts 239°
2026-04-28 23:55 45.95125 47.12208 22593 ft 357 kts 233°
2026-04-28 23:56 45.93371 47.09677 23084 ft 361 kts 219°
2026-04-28 23:56 45.91154 47.07917 23576 ft 369 kts 204°
2026-04-28 23:56 45.88618 47.07114 24010 ft 379 kts 188°
2026-04-28 23:56 45.85947 47.07343 24403 ft 389 kts 178°
2026-04-28 23:57 45.83287 47.07874 24783 ft 391 kts 178°
2026-04-28 23:57 45.80585 47.08418 25195 ft 393 kts 178°
2026-04-28 23:57 45.77870 47.08962 25587 ft 395 kts 178°
2026-04-28 23:57 45.75137 47.09505 25943 ft 397 kts 178°
2026-04-28 23:58 45.72395 47.10046 26305 ft 399 kts 178°
2026-04-28 23:58 45.70563 47.10404 26556 ft 400 kts 178°
2026-04-28 23:58 45.67786 47.10945 26930 ft 402 kts 178°
2026-04-28 23:58 45.65038 47.11480 27308 ft 404 kts 178°
2026-04-28 23:59 45.62241 47.12029 27664 ft 406 kts 178°
2026-04-28 23:59 45.59431 47.12586 28031 ft 408 kts 178°
2026-04-28 23:59 45.56608 47.13146 28394 ft 410 kts 178°
2026-04-28 23:59 45.53771 47.13708 28749 ft 412 kts 178°
2026-04-29 00:00 45.50960 47.14264 29048 ft 413 kts 178°
2026-04-29 00:00 45.48097 47.14831 29394 ft 415 kts 178°
2026-04-29 00:00 45.45229 47.15397 29710 ft 417 kts 178°
2026-04-29 00:00 45.42347 47.15961 30024 ft 419 kts 178°
2026-04-29 00:01 45.39447 47.16528 30327 ft 421 kts 178°
2026-04-29 00:01 45.36534 47.17104 30582 ft 422 kts 178°
2026-04-29 00:01 45.33617 47.17684 30836 ft 424 kts 178°
2026-04-29 00:01 45.30689 47.18261 31082 ft 425 kts 178°
2026-04-29 00:02 45.27753 47.18835 31377 ft 426 kts 178°
2026-04-29 00:02 45.24856 47.19403 31735 ft 424 kts 178°
2026-04-29 00:02 45.21929 47.19977 32100 ft 423 kts 178°
2026-04-29 00:02 45.19015 47.20545 32448 ft 422 kts 178°
2026-04-29 00:03 45.16103 47.21110 32820 ft 421 kts 178°
2026-04-29 00:03 45.13204 47.21676 33158 ft 420 kts 178°
2026-04-29 00:03 45.10345 47.22234 33505 ft 419 kts 178°
2026-04-29 00:03 45.07453 47.22798 33855 ft 418 kts 178°
2026-04-29 00:04 45.04561 47.23362 34147 ft 418 kts 178°
2026-04-29 00:04 45.01694 47.23921 34185 ft 413 kts 178°
2026-04-29 00:04 44.96041 47.25027 34203 ft 410 kts 178°
2026-04-29 00:05 44.90383 47.26140 34201 ft 410 kts 178°
2026-04-29 00:05 44.84727 47.27239 34201 ft 410 kts 178°
2026-04-29 00:06 44.79112 47.28329 34165 ft 410 kts 178°
2026-04-29 00:06 44.73463 47.29427 34176 ft 410 kts 178°
2026-04-29 00:07 44.67795 47.30530 34181 ft 410 kts 178°
2026-04-29 00:07 44.62130 47.31633 34184 ft 410 kts 178°
2026-04-29 00:08 44.56471 47.32726 34181 ft 410 kts 178°
2026-04-29 00:08 44.50834 47.33800 34169 ft 411 kts 178°
2026-04-29 00:09 44.45162 47.34859 34178 ft 411 kts 178°
2026-04-29 00:09 44.39497 47.35898 34182 ft 410 kts 178°
2026-04-29 00:10 44.33857 47.36926 34186 ft 410 kts 178°
2026-04-29 00:10 44.28191 47.37962 34171 ft 409 kts 178°
2026-04-29 00:11 44.22543 47.39007 34186 ft 408 kts 178°
2026-04-29 00:12 44.14096 47.40560 34182 ft 407 kts 178°
2026-04-29 00:12 44.08496 47.41568 34156 ft 407 kts 178°
2026-04-29 00:13 44.02876 47.42593 34173 ft 407 kts 178°
2026-04-29 00:13 43.97301 47.43611 34174 ft 406 kts 178°
2026-04-29 00:14 43.91694 47.44622 34174 ft 406 kts 178°
2026-04-29 00:14 43.86084 47.45629 34173 ft 406 kts 178°
2026-04-29 00:15 43.80510 47.46633 34153 ft 406 kts 178°
2026-04-29 00:15 43.74901 47.47654 34166 ft 406 kts 178°
2026-04-29 00:16 43.69288 47.48667 34160 ft 406 kts 178°
2026-04-29 00:16 43.63706 47.49662 34168 ft 406 kts 178°
2026-04-29 00:17 43.58088 47.50673 34139 ft 407 kts 178°
2026-04-29 00:17 43.52460 47.51714 34157 ft 407 kts 178°
2026-04-29 00:18 43.46860 47.52758 34152 ft 407 kts 178°
2026-04-29 00:18 43.41230 47.53801 34170 ft 407 kts 178°
2026-04-29 00:19 43.35612 47.54828 34143 ft 407 kts 178°
2026-04-29 00:19 43.30032 47.55853 34151 ft 406 kts 178°
2026-04-29 00:20 43.24416 47.56879 34153 ft 406 kts 178°
2026-04-29 00:20 43.18810 47.57898 34154 ft 406 kts 178°
2026-04-29 00:21 43.13251 47.58915 34150 ft 405 kts 177°
2026-04-29 00:21 43.07654 47.59937 34154 ft 405 kts 177°
2026-04-29 00:22 43.02063 47.60953 34155 ft 405 kts 177°
2026-04-29 00:22 42.96464 47.61966 34160 ft 405 kts 177°
2026-04-29 00:23 42.90868 47.62978 34161 ft 405 kts 177°
2026-04-29 00:23 42.85301 47.63992 34160 ft 405 kts 177°
2026-04-29 00:24 42.79716 47.64477 34156 ft 400 kts 185°
2026-04-29 00:24 42.74149 47.64257 34152 ft 400 kts 185°
2026-04-29 00:25 42.68621 47.64046 34143 ft 399 kts 186°
2026-04-29 00:25 42.63056 47.63832 34155 ft 399 kts 185°
2026-04-29 00:26 42.57494 47.63624 34171 ft 399 kts 185°
2026-04-29 00:26 42.51945 47.63424 34162 ft 399 kts 185°
2026-04-29 00:27 42.46421 47.63221 34141 ft 399 kts 185°
2026-04-29 00:27 42.40869 47.63016 34153 ft 398 kts 185°
2026-04-29 00:28 42.35353 47.62803 34155 ft 398 kts 185°
2026-04-29 00:28 42.29807 47.62594 34160 ft 398 kts 185°
2026-04-29 00:29 42.24267 47.62395 34124 ft 397 kts 185°
2026-04-29 00:29 42.18765 47.62196 34126 ft 397 kts 185°
2026-04-29 00:30 42.13222 47.61995 34120 ft 398 kts 185°
2026-04-29 00:30 42.07723 47.61788 34121 ft 397 kts 185°
2026-04-29 00:31 42.02184 47.61588 34104 ft 397 kts 185°
2026-04-29 00:31 41.96647 47.61387 34071 ft 397 kts 185°
2026-04-29 00:32 41.91132 47.61179 34074 ft 398 kts 185°
2026-04-29 00:32 41.85589 47.60969 34069 ft 398 kts 185°
2026-04-29 00:33 41.80077 47.60767 34075 ft 398 kts 185°
2026-04-29 00:33 41.74523 47.60576 34045 ft 398 kts 185°
2026-04-29 00:34 41.68977 47.60371 34050 ft 399 kts 185°
2026-04-29 00:34 41.63462 47.60171 34050 ft 398 kts 185°
2026-04-29 00:35 41.57902 47.59969 34057 ft 398 kts 185°
2026-04-29 00:35 41.52369 47.59759 34041 ft 399 kts 184°
2026-04-29 00:36 41.46808 47.59553 34049 ft 399 kts 184°
2026-04-29 00:36 41.41295 47.59352 34063 ft 399 kts 184°
2026-04-29 00:37 41.35739 47.59160 34069 ft 399 kts 184°
2026-04-29 00:37 41.30180 47.58972 34057 ft 399 kts 184°
2026-04-29 00:38 41.24787 47.57826 34072 ft 393 kts 202°
2026-04-29 00:38 41.22361 47.56148 34071 ft 393 kts 214°
2026-04-29 00:38 41.20277 47.53808 34100 ft 394 kts 225°
2026-04-29 00:38 41.18619 47.50889 34091 ft 398 kts 237°
2026-04-29 00:39 41.17283 47.47654 34092 ft 399 kts 238°
2026-04-29 00:39 41.14620 47.41187 34106 ft 400 kts 238°
2026-04-29 00:40 41.11943 47.34751 34134 ft 401 kts 238°
2026-04-29 00:40 41.09241 47.28271 34141 ft 401 kts 238°
2026-04-29 00:41 41.06533 47.21786 34137 ft 402 kts 238°
2026-04-29 00:41 41.03840 47.15320 34135 ft 402 kts 238°
2026-04-29 00:42 41.01132 47.08822 34137 ft 403 kts 238°
2026-04-29 00:42 40.98402 47.02307 34129 ft 404 kts 238°
2026-04-29 00:43 40.95679 46.95851 34133 ft 404 kts 238°
2026-04-29 00:43 40.92934 46.89350 34122 ft 405 kts 238°
2026-04-29 00:44 40.90382 46.82701 34104 ft 409 kts 247°
2026-04-29 00:44 40.89276 46.75270 34107 ft 415 kts 259°
2026-04-29 00:45 40.88576 46.67730 34102 ft 415 kts 258°
2026-04-29 00:45 40.87844 46.60146 34124 ft 416 kts 259°
2026-04-29 00:46 40.87113 46.52551 34106 ft 417 kts 259°
2026-04-29 00:46 40.86383 46.44938 34103 ft 417 kts 259°
2026-04-29 00:47 40.85661 46.37368 34099 ft 417 kts 259°
2026-04-29 00:47 40.84920 46.29749 34100 ft 417 kts 258°
2026-04-29 00:48 40.84172 46.22192 34101 ft 417 kts 258°
2026-04-29 00:48 40.83418 46.14584 34101 ft 417 kts 258°
2026-04-29 00:49 40.82660 46.06979 34096 ft 417 kts 258°
2026-04-29 00:49 40.81905 45.99420 34106 ft 417 kts 258°
2026-04-29 00:50 40.81141 45.91830 34115 ft 416 kts 258°
2026-04-29 00:50 40.80372 45.84241 34108 ft 416 kts 258°
2026-04-29 00:50 40.80117 45.81728 33955 ft 417 kts 258°
2026-04-29 00:51 40.79604 45.76699 33603 ft 417 kts 258°
2026-04-29 00:51 40.79214 45.72892 33325 ft 418 kts 258°
2026-04-29 00:51 40.78949 45.70318 33138 ft 419 kts 258°
2026-04-29 00:51 40.78559 45.66548 32877 ft 419 kts 258°
2026-04-29 00:52 40.78164 45.62731 32612 ft 418 kts 258°
2026-04-29 00:52 40.77769 45.58927 32315 ft 416 kts 259°
2026-04-29 00:52 40.77378 45.55167 31784 ft 412 kts 259°
2026-04-29 00:52 40.76847 45.51486 31244 ft 405 kts 251°
2026-04-29 00:53 40.75885 45.48025 30698 ft 399 kts 242°
2026-04-29 00:53 40.74570 45.44818 30142 ft 396 kts 239°
2026-04-29 00:53 40.73219 45.41665 29556 ft 393 kts 239°
2026-04-29 00:53 40.71883 45.38531 29018 ft 389 kts 239°
2026-04-29 00:54 40.70582 45.35468 28504 ft 385 kts 239°
2026-04-29 00:54 40.69277 45.32405 27984 ft 381 kts 239°
2026-04-29 00:54 40.67980 45.29371 27485 ft 377 kts 239°
2026-04-29 00:54 40.66695 45.26373 26994 ft 374 kts 239°
2026-04-29 00:55 40.65421 45.23395 26503 ft 371 kts 239°
2026-04-29 00:55 40.64162 45.20450 26033 ft 367 kts 239°
2026-04-29 00:55 40.62911 45.17527 25588 ft 364 kts 239°
2026-04-29 00:55 40.61691 45.14678 25137 ft 361 kts 239°
2026-04-29 00:56 40.60461 45.11814 24698 ft 358 kts 239°
2026-04-29 00:56 40.59236 45.08971 24263 ft 355 kts 238°
2026-04-29 00:56 40.58019 45.06156 23814 ft 353 kts 238°
2026-04-29 00:56 40.56810 45.03356 23328 ft 351 kts 238°
2026-04-29 00:57 40.55612 45.00580 22914 ft 347 kts 239°
2026-04-29 00:57 40.54426 44.97834 22593 ft 341 kts 239°
2026-04-29 00:57 40.53187 44.95184 22326 ft 338 kts 232°
2026-04-29 00:57 40.51709 44.92851 22068 ft 336 kts 228°
2026-04-29 00:58 40.50186 44.90520 21657 ft 336 kts 228°
2026-04-29 00:58 40.48665 44.88192 21142 ft 336 kts 228°
2026-04-29 00:58 40.47136 44.85857 20625 ft 337 kts 228°
2026-04-29 00:58 40.45616 44.83541 20244 ft 333 kts 228°
2026-04-29 00:59 40.44099 44.81228 19800 ft 332 kts 229°
2026-04-29 00:59 40.42599 44.78939 19416 ft 330 kts 229°
2026-04-29 00:59 40.41108 44.76663 18976 ft 327 kts 229°
2026-04-29 00:59 40.39628 44.74405 18298 ft 325 kts 229°
2026-04-29 01:00 40.38160 44.72167 17579 ft 322 kts 229°
2026-04-29 01:00 40.36698 44.69943 17055 ft 323 kts 229°
2026-04-29 01:00 40.35254 44.67747 16758 ft 319 kts 229°
2026-04-29 01:00 40.33816 44.65495 16187 ft 323 kts 231°
2026-04-29 01:01 40.32427 44.63207 15946 ft 318 kts 231°
2026-04-29 01:01 40.31087 44.60956 15596 ft 316 kts 232°
2026-04-29 01:01 40.29722 44.58654 15241 ft 315 kts 232°
2026-04-29 01:01 40.28403 44.56432 14765 ft 311 kts 232°
2026-04-29 01:02 40.27069 44.54200 14141 ft 310 kts 232°
2026-04-29 01:02 40.25733 44.51981 13502 ft 309 kts 232°
2026-04-29 01:02 40.24399 44.49775 12827 ft 307 kts 232°
2026-04-29 01:02 40.23076 44.47596 12237 ft 304 kts 232°
2026-04-29 01:03 40.21769 44.45449 11757 ft 300 kts 232°
2026-04-29 01:03 40.20472 44.43318 11305 ft 298 kts 232°
2026-04-29 01:03 40.19183 44.41198 10858 ft 297 kts 232°
2026-04-29 01:03 40.17889 44.39072 10410 ft 299 kts 231°
2026-04-29 01:04 40.16610 44.36967 10051 ft 298 kts 231°
2026-04-29 01:04 40.15313 44.34833 9628 ft 297 kts 231°
2026-04-29 01:04 40.14158 44.32628 9050 ft 292 kts 240°
2026-04-29 01:04 40.13149 44.30338 8581 ft 289 kts 240°
2026-04-29 01:05 40.12148 44.28079 8140 ft 287 kts 240°
2026-04-29 01:05 40.11178 44.25900 7960 ft 269 kts 240°
2026-04-29 01:05 40.10271 44.23877 7894 ft 248 kts 240°
2026-04-29 01:05 40.09410 44.21959 7802 ft 243 kts 240°
2026-04-29 01:06 40.08553 44.20050 7700 ft 242 kts 240°
2026-04-29 01:06 40.07725 44.18205 7599 ft 234 kts 240°
2026-04-29 01:06 40.06915 44.16397 7495 ft 226 kts 240°
2026-04-29 01:06 40.06268 44.14575 7385 ft 219 kts 257°
2026-04-29 01:07 40.06142 44.12626 7249 ft 214 kts 277°
2026-04-29 01:07 40.06534 44.10776 7122 ft 211 kts 298°
2026-04-29 01:07 40.07376 44.09226 6999 ft 209 kts 317°
2026-04-29 01:07 40.08556 44.08139 6864 ft 208 kts 336°
2026-04-29 01:08 40.09938 44.07627 6746 ft 208 kts 354°
2026-04-29 01:08 40.11357 44.07746 6625 ft 209 kts 14°
2026-04-29 01:08 40.12688 44.08497 6495 ft 209 kts 34°
2026-04-29 01:08 40.13749 44.09794 6377 ft 210 kts 54°
2026-04-29 01:09 40.14397 44.11497 6246 ft 210 kts 75°
2026-04-29 01:09 40.14553 44.13391 6125 ft 209 kts 89°
2026-04-29 01:09 40.14565 44.15221 6052 ft 195 kts 89°
2026-04-29 01:09 40.14578 44.16937 5863 ft 188 kts 89°
2026-04-29 01:10 40.14590 44.18635 5635 ft 185 kts 89°
2026-04-29 01:10 40.14603 44.20306 5396 ft 183 kts 89°
2026-04-29 01:10 40.14614 44.21960 5158 ft 181 kts 88°
2026-04-29 01:10 40.14626 44.23569 4921 ft 176 kts 89°
2026-04-29 01:11 40.14636 44.25133 4691 ft 168 kts 88°
2026-04-29 01:11 40.14647 44.26639 4488 ft 161 kts 89°
2026-04-29 01:11 40.14655 44.27970 5234 ft 150 kts 89°
2026-04-29 01:11 40.14666 44.29372 4841 ft 159 kts 88°
2026-04-29 01:12 40.14682 44.30844 4353 ft 163 kts 88°
2026-04-29 01:12 40.14705 44.32300 3932 ft 162 kts 89°
2026-04-29 01:12 40.14718 44.33769 3496 ft 161 kts 90°
2026-04-29 01:12 40.14720 44.35194 3192 ft 153 kts 91°
2026-04-29 01:13 40.14721 44.36553 2966 ft 147 kts 91°
2026-04-29 01:13 40.14723 44.37877 2812 ft 141 kts 91°
2026-04-29 01:13 40.14726 44.38989 2814 ft 98 kts 89°
2026-04-29 01:13 40.14730 44.39661 2820 ft 51 kts 89°
2026-04-29 01:14 40.14734 44.39928 2821 ft 12 kts 89°
2026-04-29 01:14 40.14746 44.40019 2825 ft 9 kts 49°
2026-04-29 01:14 40.14802 44.40028 2822 ft 8 kts 354°
2026-04-29 01:14 40.14856 44.40023 2823 ft 7 kts 358°
2026-04-29 01:15 40.14879 44.40024 2822 ft 1 kts
2026-04-29 01:15 40.14880 44.40024 2821 ft 0 kts
2026-04-29 01:15 40.14881 44.40024 2821 ft 2 kts
2026-04-29 01:16 40.14919 44.40025 2823 ft 7 kts
2026-04-29 01:16 40.14982 44.40049 2821 ft 9 kts 27°
2026-04-29 01:16 40.15039 44.40062 2822 ft 8 kts
2026-04-29 01:16 40.15080 44.40064 2822 ft 0 kts